• In Belgium
  • List of Countries
  • For 7 days
  • Water Temperature
  • Satellite Maps
  • Weather Map
  • Weather Widgets
  • user-avatar
    Login

    Hourly Weather Smidovich

    Today, 19 June, Tuesday

    Time Temperature Precipitation Wind Pressure Humidity
    00:00 +19°C° 3.1 mm 6 mps 743 mmHg 96%
    01:00 +17°C° 1.8 mm 6 mps 742 mmHg 96%
    02:00 +17°C° 1.8 mm 5 mps 742 mmHg 96%
    03:00 +17°C° 0 mm 6 mps 741 mmHg 96%
    04:00 +17°C° 0.6 mm 6 mps 741 mmHg 96%
    05:00 +17°C° 0.6 mm 6 mps 741 mmHg 96%
    06:00 +17°C° 0.6 mm 6 mps 741 mmHg 96%
    07:00 +19°C° 0.2 mm 6 mps 742 mmHg 94%
    08:00 +20°C° 0.2 mm 6 mps 742 mmHg 92%
    09:00 +20°C° 0 mm 6 mps 742 mmHg 91%
    10:00 +21°C° 0.5 mm 6 mps 742 mmHg 86%
    11:00 +22°C° 0.5 mm 6 mps 743 mmHg 81%
    12:00 +23°C° 0.5 mm 7 mps 743 mmHg 75%
    13:00 +23°C° 0.4 mm 6 mps 743 mmHg 74%
    14:00 +23°C° 0.4 mm 5 mps 743 mmHg 73%
    15:00 +23°C° 0.4 mm 5 mps 743 mmHg 72%
    16:00 +23°C° 0.1 mm 4 mps 743 mmHg 75%
    17:00 +22°C° 0.1 mm 4 mps 743 mmHg 79%
    18:00 +21°C° 0.1 mm 3 mps 744 mmHg 82%
    19:00 +20°C° 0 mm 3 mps 744 mmHg 84%
    20:00 +19°C° 0 mm 3 mps 744 mmHg 86%
    21:00 +18°C° 0 mm 2 mps 744 mmHg 87%
    22:00 +17°C° 0 mm 2 mps 744 mmHg 88%
    23:00 +17°C° 0 mm 2 mps 744 mmHg 89%

    Tomorrow, 20 June, Wednesday

    Time Temperature Precipitation Wind Pressure Humidity
    00:00 +17°C° 0 mm 2 mps 744 mmHg 89%
    01:00 +16°C° 0 mm 1 mps 744 mmHg 90%
    02:00 +16°C° 0 mm 1 mps 744 mmHg 91%
    03:00 +16°C° 0 mm 1 mps 744 mmHg 92%
    04:00 +16°C° 0.8 mm 1 mps 744 mmHg 93%
    05:00 +16°C° 0.8 mm 1 mps 744 mmHg 94%
    06:00 +16°C° 0.8 mm 1 mps 744 mmHg 95%
    07:00 +18°C° 0.8 mm 1 mps 744 mmHg 93%
    08:00 +19°C° 0.8 mm 1 mps 743 mmHg 91%
    09:00 +19°C° 0.8 mm 1 mps 743 mmHg 90%
    10:00 +20°C° 0.9 mm 1 mps 743 mmHg 88%
    11:00 +20°C° 0.9 mm 1 mps 743 mmHg 86%
    12:00 +20°C° 0.9 mm 1 mps 743 mmHg 85%
    13:00 +20°C° 0.9 mm 1 mps 743 mmHg 86%
    14:00 +20°C° 0.9 mm 1 mps 742 mmHg 88%
    15:00 +20°C° 0.9 mm 1 mps 742 mmHg 89%
    16:00 +19°C° 1.3 mm 1 mps 742 mmHg 91%
    17:00 +19°C° 1.3 mm 1 mps 742 mmHg 93%
    18:00 +18°C° 1.3 mm 1 mps 742 mmHg 94%
    19:00 +18°C° 0.4 mm 1 mps 742 mmHg 95%
    20:00 +16°C° 0.4 mm 1 mps 742 mmHg 96%
    21:00 +15°C° 0.4 mm 1 mps 743 mmHg 96%
    22:00 +15°C° 0.1 mm 1 mps 743 mmHg 96%
    23:00 +15°C° 0.1 mm 1 mps 743 mmHg 97%

    Day after tomorrow, 21 June, Thursday

    Time Temperature Precipitation Wind Pressure Humidity
    00:00 +14°C° 0.1 mm 1 mps 743 mmHg 97%
    01:00 +14°C° 0 mm 1 mps 743 mmHg 97%
    02:00 +13°C° 0 mm 1 mps 743 mmHg 96%
    03:00 +13°C° 0 mm 1 mps 743 mmHg 96%
    04:00 +14°C° 0 mm 1 mps 743 mmHg 95%
    05:00 +14°C° 0 mm 1 mps 743 mmHg 94%
    06:00 +15°C° 0 mm 1 mps 743 mmHg 93%
    07:00 +16°C° 0 mm 1 mps 743 mmHg 88%
    08:00 +19°C° 0 mm 1 mps 743 mmHg 83%
    09:00 +19°C° 0 mm 2 mps 743 mmHg 78%
    10:00 +19°C° 0.2 mm 2 mps 743 mmHg 77%
    11:00 +20°C° 0.2 mm 2 mps 743 mmHg 76%
    12:00 +20°C° 0.2 mm 2 mps 742 mmHg 74%
    13:00 +21°C° 0.4 mm 2 mps 742 mmHg 74%
    14:00 +21°C° 0.4 mm 2 mps 742 mmHg 73%
    15:00 +23°C° 0.4 mm 2 mps 741 mmHg 72%
    16:00 +21°C° 0.4 mm 2 mps 741 mmHg 75%
    17:00 +21°C° 0.4 mm 2 mps 741 mmHg 78%
    18:00 +20°C° 0.4 mm 2 mps 741 mmHg 80%
    19:00 +19°C° 0.2 mm 2 mps 741 mmHg 85%
    20:00 +17°C° 0.2 mm 2 mps 742 mmHg 89%
    21:00 +15°C° 0.2 mm 2 mps 742 mmHg 94%
    22:00 +15°C° 0 mm 2 mps 742 mmHg 94%
    23:00 +14°C° 0 mm 1 mps 742 mmHg 94%

    22 June, Friday

    Time Temperature Precipitation Wind Pressure Humidity
    00:00 +13°C° 0 mm 1 mps 742 mmHg 94%
    01:00 +13°C° 0.1 mm 1 mps 742 mmHg 94%
    02:00 +13°C° 0.1 mm 1 mps 742 mmHg 94%
    03:00 +12°C° 0.1 mm 1 mps 742 mmHg 94%
    04:00 +13°C° 0 mm 1 mps 743 mmHg 93%
    05:00 +14°C° 0 mm 1 mps 743 mmHg 93%
    06:00 +14°C° 0 mm 1 mps 743 mmHg 92%
    07:00 +16°C° 0 mm 2 mps 743 mmHg 88%
    08:00 +17°C° 0 mm 2 mps 743 mmHg 83%
    09:00 +19°C° 0 mm 2 mps 743 mmHg 79%
    10:00 +20°C° 0.2 mm 2 mps 743 mmHg 74%
    11:00 +23°C° 0.2 mm 2 mps 742 mmHg 69%
    12:00 +24°C° 0.2 mm 2 mps 742 mmHg 63%
    13:00 +25°C° 0.5 mm 2 mps 742 mmHg 62%
    14:00 +26°C° 0.5 mm 2 mps 742 mmHg 61%
    15:00 +26°C° 0.5 mm 2 mps 741 mmHg 60%
    16:00 +25°C° 0.8 mm 2 mps 741 mmHg 65%
    17:00 +25°C° 0.8 mm 2 mps 741 mmHg 70%
    18:00 +24°C° 0.8 mm 3 mps 742 mmHg 76%
    19:00 +21°C° 0.2 mm 3 mps 742 mmHg 80%
    20:00 +19°C° 0.2 mm 3 mps 742 mmHg 85%
    21:00 +18°C° 0.2 mm 3 mps 743 mmHg 89%
    22:00 +17°C° 0.1 mm 3 mps 743 mmHg 91%
    23:00 +16°C° 0.1 mm 3 mps 743 mmHg 94%

    23 June, Saturday

    Time Temperature Precipitation Wind Pressure Humidity
    00:00 +14°C° 0.1 mm 3 mps 743 mmHg 96%
    01:00 +13°C° 0 mm 3 mps 743 mmHg 96%
    02:00 +12°C° 0 mm 3 mps 744 mmHg 96%
    03:00 +12°C° 0 mm 3 mps 744 mmHg 96%
    04:00 +12°C° 0 mm 3 mps 744 mmHg 94%
    05:00 +12°C° 0 mm 3 mps 744 mmHg 92%
    06:00 +12°C° 0 mm 3 mps 745 mmHg 90%
    07:00 +13°C° 0 mm 3 mps 745 mmHg 85%
    08:00 +16°C° 0 mm 3 mps 745 mmHg 81%
    09:00 +17°C° 0 mm 3 mps 745 mmHg 76%
    10:00 +18°C° 0 mm 3 mps 745 mmHg 73%
    11:00 +20°C° 0 mm 2 mps 745 mmHg 69%
    12:00 +23°C° 0 mm 2 mps 744 mmHg 66%
    13:00 +23°C° 0 mm 2 mps 744 mmHg 65%
    14:00 +24°C° 0 mm 2 mps 744 mmHg 65%
    15:00 +25°C° 0 mm 2 mps 744 mmHg 64%
    16:00 +24°C° 0 mm 2 mps 744 mmHg 69%
    17:00 +24°C° 0 mm 2 mps 744 mmHg 74%
    18:00 +22°C° 0 mm 3 mps 744 mmHg 79%
    19:00 +20°C° 0.2 mm 3 mps 745 mmHg 82%
    20:00 +19°C° 0.2 mm 4 mps 745 mmHg 84%
    21:00 +16°C° 0.2 mm 5 mps 745 mmHg 87%
    22:00 +15°C° 0.2 mm 5 mps 746 mmHg 85%
    23:00 +14°C° 0.2 mm 4 mps 746 mmHg 83%

    24 June, Sunday

    Time Temperature Precipitation Wind Pressure Humidity
    00:00 +14°C° 0.2 mm 4 mps 746 mmHg 81%
    01:00 +13°C° 0.1 mm 4 mps 746 mmHg 80%
    02:00 +13°C° 0.1 mm 5 mps 747 mmHg 78%
    03:00 +13°C° 0.1 mm 5 mps 747 mmHg 76%
    04:00 +13°C° 0.1 mm 5 mps 747 mmHg 77%
    05:00 +13°C° 0.1 mm 5 mps 748 mmHg 77%
    06:00 +13°C° 0.1 mm 5 mps 748 mmHg 78%
    07:00 +14°C° 0 mm 5 mps 748 mmHg 75%
    08:00 +15°C° 0 mm 5 mps 748 mmHg 72%
    09:00 +17°C° 0 mm 6 mps 749 mmHg 69%
    10:00 +19°C° 0 mm 6 mps 749 mmHg 67%
    11:00 +20°C° 0 mm 5 mps 749 mmHg 65%
    12:00 +21°C° 0 mm 5 mps 748 mmHg 63%
    13:00 +22°C° 0 mm 5 mps 748 mmHg 63%
    14:00 +22°C° 0 mm 5 mps 748 mmHg 63%
    15:00 +22°C° 0 mm 5 mps 748 mmHg 64%
    16:00 +22°C° 0 mm 5 mps 748 mmHg 66%
    17:00 +21°C° 0 mm 4 mps 748 mmHg 69%
    18:00 +21°C° 0 mm 4 mps 748 mmHg 72%
    19:00 +20°C° 0 mm 4 mps 749 mmHg 73%
    20:00 +18°C° 0 mm 4 mps 749 mmHg 73%
    21:00 +17°C° 0 mm 4 mps 749 mmHg 74%
    22:00 +17°C° 0 mm 4 mps 750 mmHg 72%
    23:00 +16°C° 0 mm 5 mps 750 mmHg 69%
    Show more